Regional Weather Roundup
Issued by NWS Kansas City/Pleasant Hill, MO

Home | Current Version | Previous Version | Graphics & Text | Print | Product List | Glossary Off
Versions: 1 2 3 4 5 6 7 8 9 10 11 12 13 14 15 16 17 18 19 20 21 22 23 24 25 26 27 28 29 30 31 32 33 34 35 36 37 38 39 40 41 42 43 44 45 46 47 48 49 50

000
ASUS43 KEAX 311904
RWREAX

WEATHER ROUNDUP FOR EASTERN KANSAS AND NORTHWEST MISSOURI
NATIONAL WEATHER SERVICE KANSAS CITY/PLEASANT HILL MO
200 PM CDT THU JUL 31 2014

KSZ040-057-103>105-MOZ028-029-037-043-312000-
...KANSAS CITY METROPOLITAN AREA...

CITY           SKY/WX    TMP DP  RH WIND       PRES   REMARKS
K.C. INTL      PTSUNNY   80  56  43 VRB3      30.10F
K.C. DOWNTOWN  MOSUNNY   83  55  38 VRB5      30.09F
LEES SUMMIT    MOSUNNY   82  55  39 NE3       30.11F
OLATHE - IXD   CLOUDY    80  55  42 N7        30.10F
OLATHE - OJC   MOSUNNY   81  55  40 VRB5      30.10F
LAWRENCE       MOSUNNY   83  58  42 NE3       30.09F

$$

MOZ001>008-011>017-020>025-030>033-038>040-044>046-053-054-312000-
...NORTHERN AND CENTRAL MISSOURI...

CITY           SKY/WX    TMP DP  RH WIND       PRES   REMARKS
ST. JOSEPH     PTSUNNY   80  58  46 NW6       30.09F
MOSBY          PTCLDY    79  54  41 E3        30.10S
WHITEMAN AFB   MOSUNNY   81  44  26 N6        30.09F
CLINTON        MOSUNNY   82  57  42 SE7       30.09F
SEDALIA        PTSUNNY   81  56  42 NE3       30.10F
WARSAW         NOT AVBL
MARSHALL       PTSUNNY   81  59  47 NW5       30.11F HAZE
CHILLICOTHE      N/A     82  55  39 S7        30.10F
KIRKSVILLE     SUNNY     82  57  42 S6        30.11F

$$

MOZ041-047>049-056>058-063>065-088>090-097-312000-
...EASTERN AND SOUTHERN MISSOURI...

CITY           SKY/WX    TMP DP  RH WIND       PRES   REMARKS
ST. LOUIS INTL PTSUNNY   85  58  39 NW6       30.08F
SPIRIT OF STL  PTSUNNY   85  56  37 NE6       30.06F
COLUMBIA       PTSUNNY   83  55  38 CALM      30.09F
JEFFERSON CITY PTSUNNY   83  55  38 CALM      30.08S
ROLLA          PTSUNNY   81  51  35 E6        30.08F
LEBANON        MOSUNNY   82  55  39 S8        30.11S
OSAGE BEACH      N/A     82  57  42 NE5       30.08F
SPRINGFIELD    CLOUDY    78  60  53 CALM      30.09F
BRANSON        CLOUDY    73  66  78 NE9       30.12F
NEVADA         MOSUNNY   77  59  53 CALM      30.11F
JOPLIN         PTSUNNY   80  64  58 NE6       30.09F
WEST PLAINS    PTSUNNY   75  62  64 S6        30.12S

$$

IAZ060-094-KSZ022-034>040-054-083-096-NEZ052-066-093-312000-
...KANSAS...SOUTHEAST NEBRASKA AND IOWA...

CITY           SKY/WX    TMP DP  RH WIND       PRES   REMARKS
TOPEKA         MOSUNNY   84  52  33 VRB5      30.09F
MANHATTAN      MOSUNNY   82  52  35 NW3       30.09F
EMPORIA        SUNNY     79  53  40 CALM      30.11F
CHANUTE        MOSUNNY   80  59  48 VRB5      30.10F
WICHITA        PTSUNNY   82  57  42 N9        30.11F
OMAHA          PTSUNNY   81  55  40 S8        30.08S
LINCOLN        SUNNY     85  55  35 SW12      30.07F
FALLS CITY     MOSUNNY   83  55  38 CALM      30.08F
LAMONI         PTSUNNY   80  56  43 VRB6      30.10F
DES MOINES     MOSUNNY   82  55  39 W6        30.07F

$$




USA.gov is the U.S. government's official web portal to all federal, state and local government web resources and services.